Location: Bazugues
(43.4465°N, 0.3432°E)
Time: 16:00:15
(UTC+00:00)

USA 215 - Pass Details

Date: 12 January 2026
Orbit: 1098 x 1109 km, 123.0° (Epoch: 10 January)

Event Time Altitude Azimuth Distance (km) Brightness Sun altitude
Exits shadow 19:58:06 43° 343° (NNW) 1,500 4.0 -34.5°
Maximum altitude 19:58:26 44° 335° (NNW) 1,493 4.0 -34.6°
Drops below altitude 10° 20:04:32 10° 266° (W) 2,957 6.3 -35.7°
Sets 20:07:07 0° 260° (W) 3,911 7.1 -36.2°
